Flag for Germany Weather past 2 weeks in Filderstadt, Baden-Württemberg, Germany

Now
71 °F

Overcast.


Feels Like: 74 °F
Forecast: 57 / 74 °F
Wind: 2 mph from South

Location: Stuttgart-Echterdingen

Current Time: Sep 19, 2014 at 12:55:52 PM

Latest Report: Sep 19, 2014 at 12:00 PM


Visibility: 41 mi

Pressure: 29.93 "Hg

Humidity: 69%

Dew point: 60 °F

Location of FilderstadtLocation

Historic Weather in Filderstadt — Graph

°F

Filderstadt temperature yesterday

Maximum temperature yesterday: 75 °F (at 4:00 PM)
Minimum temperature yesterday: 57 °F (at 7:00 AM)
Average temperature yesterday: 64 °F

Past Weeks' High & Low Weather Summary

 TemperatureHumidityPressure
High76 °F (Sep 6, 3:00 PM)99% (Sep 5, 8:00 AM)30.16 "Hg (Sep 5, 8:00 AM)
Low51 °F (Sep 17, 6:00 AM)51% (Sep 9, 4:00 PM)29.83 "Hg (Sep 17, 5:00 PM)
Average61 °F83%29.99 "Hg
* Reported Sep 4 10:00 AM — Sep 19 10:00 AM, Filderstadt, Weather by CustomWeather, © 2014

Note: Actual official high and low records may vary slightly from our data, if they occured in-between our weather recording intervals... More about our weather records

Advertising

Filderstadt weather history for previous 24 hours

 ConditionsComfort  
Time TempWeatherWind HumidityBarometerVisibility
10:00 AM
Sep 19
65 °FPartly sunny.1 mph82%29.94 "Hg37 mi
9:00 AM61 °FOvercast.No wind93%29.95 "Hg37 mi
8:00 AM58 °FPartly sunny.1 mph95%29.95 "Hg37 mi
7:00 AM60 °FOvercast.2 mph93%29.93 "Hg19 mi
6:00 AM60 °FLight rain. Overcast.2 mph90%29.93 "Hg12 mi
5:00 AM60 °FPassing clouds.1 mph90%29.93 "Hg16 mi
4:00 AM56 °FPassing clouds.1 mph92%29.93 "Hg12 mi
3:00 AM57 °FClear.1 mph93%29.93 "Hg12 mi
2:00 AM58 °FPassing clouds.1 mph94%29.93 "Hg11 mi
1:00 AM58 °FFog.1 mph96%29.93 "Hg4 mi
12:00 AM60 °FFog.1 mph94%29.93 "Hg4 mi
10:00 PM
Sep 18
61 °FPassing clouds.1 mph93%29.93 "Hg16 mi
9:00 PM63 °FPassing clouds.2 mph94%29.91 "Hg16 mi
8:00 PM65 °FPassing clouds.1 mph92%29.89 "Hg9 mi
7:00 PM66 °FOvercast.2 mph90%29.90 "Hg9 mi
6:00 PM68 °FLight rain. Overcast.5 mph81%29.90 "Hg6 mi
5:00 PM73 °FOvercast.1 mph64%29.86 "Hg12 mi
4:00 PM75 °FOvercast.1 mph61%29.84 "Hg12 mi
3:00 PM74 °FPartly sunny.1 mph59%29.85 "Hg16 mi
2:00 PM73 °FPartly sunny.1 mph63%29.85 "Hg16 mi
1:00 PM72 °FPartly sunny.2 mph68%29.85 "Hg14 mi
12:00 PM71 °FPartly sunny.1 mph69%29.86 "Hg12 mi
Weather by CustomWeather, © 2014

See weather overviewHow to use our weather pages